Torna al catalogo

DELTA 1 DEB

AttivoSSO
NORAD 7064·DEBRIS·🇺🇸 United States

Lanciato Nov 6, 1973 da Vandenberg Space Force Base

Loading…

Prossimi Passaggi (prossime 24 ore)

TLE

AggiornatoSource: Space-Track

Epoca: Sep 14, 2026, 01:24 UTC

1 07064U 73086BG  26257.05855729 -.00000003  00000-0  19352-3 0  9991
2 07064 101.6563 118.0206 0181622 173.6469 350.7874 12.75488599457485

Traccia DELTA 1 DEB in tempo reale con AllMySat

Download on the App Store